x

Buoy B01 - Western Maine Shelf (44030) Wave Buoy

11:04 - Wed 16th Apr 2014 All times are EDT. -4 hours from GMT.

  • Sig Wave height 5.9ft
  • Peak Period 11s
  • Wind
    13mph, 18mph gusts
  • Sea Temp 39°f
  • Aire Temp 33°f
  • Sea Pressure 1022.7mb
  • Buoy B01 - Western Maine Shelf
  • Buoy B01 - Western Maine Shelf

More Historic Weather Station data

Upgrade to MSW Pro to gain access to the past 30 days of data for over 8000 Wavebouys and Weather Stations around the globe.

Join Pro

Comparision Forecast

View Surf forecast
   
mié 04/16 11:04 6ft 11s 13 18 mph 1022.7mb 39f 33f
10:04 5.5ft 11s 18 20 mph 1021.6mb 39f 33f
9:04  -   -  20 25 mph 1020.2mb 39f 32f
8:04 5ft 11s 25 31 mph 1018.1mb 39f 31f
7:04 5ft 8s 22 27 mph 1014.9mb 39f 32f
6:04 5ft 8s 27 34 mph - 39f 32f
5:04 4.5ft 8s 25 29 mph 1010.8mb 38f 32f
4:04 5ft 8s 22 29 mph 1009.2mb 39f 34f
3:04 5.5ft 8s 20 22 mph 1006.7mb 39f 37f
2:04 6ft 8s 22 27 mph 1005.8mb 39f 38f
1:04 6ft 8s 25 31 mph 1004.6mb 40f 41f
12:04 6.5ft 8s 25 31 mph 1003.3mb 40f 43f
mar 04/15 11:04 8ft 8s 11 16 mph 1001.8mb 40f 45f
10:04 7.5ft 8s 20 25 mph 1000.6mb 40f 45f
9:04 8ft 8s 22 25 mph 1000mb 40f 46f
8:04 9.5ft 8s 25 29 mph 1000.4mb 40f 47f
7:04 8ft 8s 25 27 mph 1000.6mb 40f 48f
6:04 9ft 8s 25 29 mph 1000.6mb 40f 47f
5:04 8ft 6s 27 34 mph 1001mb 41f 48f
4:04 5.5ft 5s 22 27 mph 1001.8mb 41f 47f
3:04 7ft 6s 25 29 mph 1002.5mb 41f 48f
2:04 6ft 6s 25 27 mph 1003.6mb 41f 47f
1:04 5ft 6s 20 25 mph 1004.3mb 41f 47f
12:04 5ft 6s 22 27 mph 1005.5mb 41f 47f
11:04 6ft 6s 20 25 mph 1006.6mb 41f 46f
10:04 5ft 6s 18 20 mph 1007.6mb 41f 45f
9:04 5ft 6s 16 18 mph 1008.3mb 41f 45f
8:04 5ft 6s 18 22 mph 1008.9mb 41f 45f
7:04 4.5ft 6s 20 22 mph 1009.4mb 41f 46f
6:04 4.5ft 6s 20 22 mph 1009.5mb 41f 47f
5:04 5ft 6s 18
mph
1009.9mb 41f 46f
4:04 4.5ft 6s 18 20 mph 1009.7mb 41f 47f
3:04 5ft 6s 16 18 mph 1010mb 41f 45f
1:04 4.5ft 6s 16 20 mph 1010.3mb 40f 46f
12:04 5.5ft 6s 18 20 mph 1010.5mb 40f 45f
lun 04/14 11:04 5.5ft 6s 18 20 mph 1010.7mb 40f 46f
10:04 5ft 6s 20 22 mph 1010.7mb 40f 46f
9:04 5ft 5s 20 25 mph 1010.8mb 40f 47f
8:04 5.5ft 6s 22 27 mph 1010.1mb 40f 49f
7:04 5ft 6s 20 22 mph 1010mb 40f 48f
6:04 5ft 6s 22 25 mph 1009.6mb 40f 49f
5:04 4.5ft 5s 20 22 mph 1010mb 41f 49f
4:04 5ft 5s 20 22 mph 1010.4mb 40f 49f
3:04 5ft 6s 20 22 mph 1010.4mb 41f 50f
2:04 4.5ft 5s 20 25 mph 1010.7mb 41f 50f
1:04 5ft 5s 20 22 mph 1011.1mb 41f 49f
12:04 5ft 6s 20 22 mph 1011.9mb 41f 48f
11:04 3.5ft 6s 4 9 mph 1013mb 41f 46f
10:04 3ft 5s 2 4 mph 1013.8mb 41f 44f
9:04 3ft 5s  -  2 mph 1013.7mb 40f 43f
8:04 3.5ft 5s 2
mph
1014.3mb 40f 42f
7:04 3ft 5s 2
mph
1014.3mb 40f 40f
6:04 4ft 5s 2
mph
1014.6mb 40f 39f
5:04 3.5ft 5s 2 4 mph 1014.9mb 40f 40f
4:04 4ft 5s 2 4 mph 1015.1mb 40f 40f
3:04 3.5ft 5s 2 4 mph 1015.3mb 40f 40f
2:04 3.5ft 5s 2
mph
1015.3mb 40f 40f
1:04 3.5ft 6s 2 4 mph 1015.8mb 40f 40f
12:04 4ft 5s 7 9 mph 1016.3mb 40f 40f
dom 04/13 11:04 3.5ft 5s 4
mph
1016.2mb 40f 40f
10:04 4ft 5s 9 11 mph 1017mb 40f 41f
9:04 3.5ft 5s 9
mph
1016.8mb 40f 41f
8:04 4.5ft 5s 11 13 mph 1017.5mb 40f 41f
7:04 3.5ft 5s 11
mph
1017.5mb 40f 41f
6:04 3.5ft 5s 9 11 mph 1018.5mb 40f 41f
5:04 3ft 5s 9 11 mph 1019.2mb 40f 41f
4:04 3ft 8s 7 9 mph 1019.9mb 40f 41f
3:04 3.5ft 5s 7
mph
1021.6mb 40f 41f
2:04 3.5ft 5s 7 9 mph 1022.1mb 40f 40f
1:04 4ft 5s 13 18 mph 1022.6mb 40f 40f
12:04 4ft 4s 16 20 mph 1023.4mb 40f 40f
11:04 3.5ft 8s 16 18 mph 1024.4mb 40f 40f
10:04 3.5ft 6s 13 16 mph 1025mb 40f 41f
9:04 3.5ft 8s 16 20 mph 1024.4mb 40f 41f
8:04 3ft 8s 13 16 mph 1023.9mb 40f 41f
7:04 3ft 8s 9
mph
1023.7mb 40f 42f
6:04 3ft 11s 7
mph
1023.9mb 40f 42f
5:04 2.5ft 8s 4 7 mph 1023.2mb 40f 42f
4:04 2.5ft 8s 9
mph
1023.1mb 40f 43f
3:04 3ft 11s 9
mph
1022.9mb 41f 43f
2:04 2.5ft 11s 11
mph
1022.6mb 41f 42f
1:04 3ft 11s 7
mph
1022.4mb 40f 43f
12:04 2.5ft 8s 7 20 mph 1022mb 41f 45f
sáb 04/12 11:04 3.5ft 8s 2
mph
1021.8mb 41f 42f
10:04 3ft 8s 4
mph
1021.5mb 41f 43f
9:04 3.5ft 8s 9 11 mph 1021.3mb 41f 44f
8:04 3ft 8s 11 13 mph 1020.5mb 41f 44f
7:04 3ft 8s 4 7 mph 1019.9mb 41f 44f
6:04 3.5ft 8s 9 11 mph 1018.7mb 41f 45f
5:04 3.5ft 8s 9
mph
1018.1mb 41f 47f